Location: St. Louis
(38.6270°N, 90.1994°W)
Time: 19:57:23
(UTC-05:00)

DELFI C3 - Visible Passes

Search period start: 17 August 2022 00:00
Search period end: 27 August 2022 00:00
Orbit: 513 x 529 km, 97.3° (Epoch: 17 August)

Date Brightness Start Highest point End Pass type
(mag) Time Alt. Az. Time Alt. Az. Time Alt. Az.
17 Aug ? 20:40:04 10° SW 20:42:41 18° W 20:45:19 10° NW visible
18 Aug ? 20:26:14 10° SSW 20:29:25 25° W 20:32:35 10° NW visible
19 Aug ? 20:12:37 10° SSW 20:16:08 37° W 20:19:39 10° NNW visible
23 Aug ? 20:56:06 10° WSW 20:57:25 11° W 20:58:43 10° WNW visible
24 Aug ? 20:41:30 10° SW 20:43:59 17° W 20:46:28 10° NW visible
25 Aug ? 20:27:28 10° SSW 20:30:33 24° W 20:33:39 10° NW visible
26 Aug ? 20:13:40 10° SSW 20:17:08 35° W 20:20:37 10° NNW visible
